Regional Weather Roundup
Issued by NWS

Home | Current Version | Previous Version | Text Only | Print | Product List | Glossary On
Versions: 1 2 3 4 5 6 7 8 9 10 11 12 13 14 15 16 17 18 19 20 21 22 23 24 25 26 27 28 29 30 31 32 33 34 35 36 37 38 39 40 41 42 43 44 45 46 47 48 49 50
000
ASUS44 KFWD 231215
RWRTX
NORTH TEXAS HOURLY WEATHER ROUNDUP
NATIONAL WEATHER SERVICE FORT WORTH TX
700 AM CDT WED AUG 23 2017

NOTE: "FAIR" INDICATES FEW OR NO CLOUDS BELOW 12,000 FEET WITH NO
SIGNIFICANT WEATHER AND/OR OBSTRUCTIONS TO VISIBILITY.

TXZ118-119-231300-
DALLAS/FORT WORTH METROPLEX

CITY           SKY/WX    TMP DP  RH WIND       PRES   REMARKS
DFW AIRPORT    CLOUDY    76  72  87 N3        30.01F
6HR MIN TEMP:  76; 6HR MAX TEMP:  87; 6HR PCP: TRACE;

DALLAS LOVE    CLOUDY    78  69  73 E7        30.02S
6HR MIN TEMP:  78; 6HR MAX TEMP:  88;

FTW MEACHAM    LGT RAIN  75  74  96 NE6       30.03S
6HR MIN TEMP:  75; 6HR MAX TEMP:  87; 6HR PCP:  0.15;

DAL-EXECUTIVE  CLOUDY    78  70  76 NE6       30.02S
6HR MIN TEMP:  78; 6HR MAX TEMP:  85;

FTW-ALLIANCE   LGT RAIN  73  73 100 SE3       30.02S
6HR MIN TEMP:  73; 6HR MAX TEMP:  84; 6HR PCP:  0.05;

FTW-NAS-JRB    TSTM      75  72  90 N7        30.03S
6HR MIN TEMP:  75; 6HR MAX TEMP:  87; 6HR PCP:  0.37;

FTW-SPINKS     CLEAR     77  72  83 NE5       30.04S
ARLINGTON      CLOUDY    78  71  79 N8        30.02F
6HR MIN TEMP:  77; 6HR MAX TEMP:  85;

GRAND PRAIRIE  PTCLDY    77  66  69 N9        30.04S
ADDISON        CLEAR     75  70  83 NE7       30.03S
MESQUITE         N/A     88  70  55 NE6       30.02S HX  92
LANCASTER      MOCLDY    77  68  74 CALM      30.03S
6HR MIN TEMP:  77; 6HR MAX TEMP:  82;

$$

TXZ091>094-102>105-117-120-121-131>134-231300-
NORTH CENTRAL TEXAS

CITY           SKY/WX    TMP DP  RH WIND       PRES   REMARKS
SHRMAN/DENISON LGT RAIN  71  70  98 E10       30.05S
6HR MIN TEMP:  71; 6HR MAX TEMP:  77; 6HR PCP:  1.37;

GAINESVILLE    MOCLDY    72  70  96 CALM      30.06R
6HR MIN TEMP:  71; 6HR MAX TEMP:  74; 6HR PCP:  0.53;

BOWIE          CLOUDY    71  71  99 N3        30.05R
6HR MIN TEMP:  71; 6HR MAX TEMP:  72; 6HR PCP:  0.41;

BRIDGEPORT     CLOUDY    72  72 100 SE5       30.04S THUNDER
6HR MIN TEMP:  72; 6HR MAX TEMP:  74; 6HR PCP:  0.40;

DECATUR        CLOUDY    72  70  96 E3          N/A
6HR MIN TEMP:  72; 6HR MAX TEMP:  75; 6HR PCP:  0.37;

DENTON         LGT RAIN  73  73 100 E6        30.02F
6HR MIN TEMP:  73; 6HR MAX TEMP:  82; 6HR PCP:  0.07;

MCKINNEY       LGT RAIN  72  71  97 NE7       30.03S
6HR MIN TEMP:  72; 6HR MAX TEMP:  82; 6HR PCP:  0.06;

BONHAM         LGT RAIN  70  68  94 E3        30.05F
GREENVILLE     CLOUDY    77  72  83 N6        30.04S
ROCKWALL       CLOUDY    75  69  82 NE10      30.03S
6HR MIN TEMP:  74; 6HR MAX TEMP:  83;

TERRELL        MOCLDY    75  71  87 NE10      30.03R
6HR MIN TEMP:  75; 6HR MAX TEMP:  82;

WAXAHACHIE     CLOUDY    76  71  83 N5        30.04R
6HR MIN TEMP:  76; 6HR MAX TEMP:  82;

CLEBURNE       CLOUDY    77  73  88 NE9       30.04S
GRANBURY       CLOUDY    75  70  83 NE5       30.04S
6HR MIN TEMP:  75; 6HR MAX TEMP:  84;

$$

TXZ083>090-098>101-113>116-127>130-139>142-154-155-231300-
WESTERN NORTH TEXAS

CITY           SKY/WX    TMP DP  RH WIND       PRES   REMARKS
WICHITA FALLS  CLOUDY    72  70  93 NE10      30.06R
6HR MIN TEMP:  71; 6HR MAX TEMP:  72;

WF-KICKAPOO    CLOUDY    73  71  94 N10       30.08R
6HR MIN TEMP:  72; 6HR MAX TEMP:  73;

VERNON         CLOUDY    69  66  89 N5        30.10R
6HR MIN TEMP:  69; 6HR MAX TEMP:  77;

ABILENE        CLOUDY    72  71  97 N6        30.09R
6HR MIN TEMP:  71; 6HR MAX TEMP:  73;

ABILENE-DYESS  CLOUDY    73  71  94 N6        30.08R
6HR MIN TEMP:  71; 6HR MAX TEMP:  73;

GRAHAM         CLOUDY    72  50  46 CALM      30.03S
6HR MIN TEMP:  72; 6HR MAX TEMP:  74;

BRECKENRIDGE   CLOUDY    75  72  91 CALM      30.05S
6HR MIN TEMP:  74; 6HR MAX TEMP:  79;

CISCO          CLOUDY    73  70  88 NE5       30.08S
EASTLAND       CLOUDY    73  71  94 N3        30.07R
6HR MIN TEMP:  72; 6HR MAX TEMP:  75;

RANGER         DRIZZLE   71  71  99 N5        30.06R
6HR MIN TEMP:  71; 6HR MAX TEMP:  94;

MINERAL WELLS  LGT RAIN  72  70  93 VRB7      30.01F
6HR MIN TEMP:  72; 6HR MAX TEMP:  78; 6HR PCP:  0.42;

STEPHENVILLE   CLOUDY    73  69  86 NE6       30.06F
6HR MIN TEMP:  73; 6HR MAX TEMP:  83;

COMANCHE       PTCLDY    73  73 100 E3        30.05S
6HR MIN TEMP:  72; 6HR MAX TEMP:  81;

BROWNWOOD      CLOUDY    75  68  78 N5        30.05S
COLEMAN        CLOUDY    74  67  80 N7        30.07S
6HR MIN TEMP:  74; 6HR MAX TEMP:  77;

$$

TXZ143>147-156>162-174-175-231300-
CENTRAL TEXAS

CITY           SKY/WX    TMP DP  RH WIND       PRES   REMARKS
WACO           MOCLDY    74  70  87 CALM      30.00S
6HR MIN TEMP:  74; 6HR MAX TEMP:  84;

WACO-TSTC      PTCLDY    73  70  88 CALM      30.00
WACO-MCGREGOR  MOCLDY    76  69  79 NW3       30.01R
6HR MIN TEMP:  76; 6HR MAX TEMP:  83;

HILLSBORO      CLOUDY    78  72  82 NE10      30.02S
6HR MIN TEMP:  77; 6HR MAX TEMP:  83;

CORSICANA      MOCLDY    77  70  79 CALM      30.01F
6HR MIN TEMP:  77; 6HR MAX TEMP:  83;

MEXIA          CLOUDY    75  69  81 NW5       30.00R
6HR MIN TEMP:  74; 6HR MAX TEMP:  78;

HEARNE         MOCLDY    73  72  98 E3        30.01R
6HR MIN TEMP:  73; 6HR MAX TEMP:  79;

CAMERON        MOCLDY    76  72  87 CALM      30.01R
6HR MIN TEMP:  76; 6HR MAX TEMP:  82;

TEMPLE         CLOUDY    77  70  79 CALM      30.01S
6HR MIN TEMP:  76; 6HR MAX TEMP:  82;

KILLEEN        CLOUDY    75  68  79 S5        30.01R
6HR MIN TEMP:  75; 6HR MAX TEMP:  80;

KILLEEN-SKYLRK PTCLDY    76  69  79 CALM      30.01S
6HR MIN TEMP:  76; 6HR MAX TEMP:  81;

FORT HOOD      PTCLDY    76  68  77 CALM      29.98S
6HR MIN TEMP:  76; 6HR MAX TEMP:  80;

HAMILTON       CLOUDY    76  70  82 NE6       30.04S
6HR MIN TEMP:  75; 6HR MAX TEMP:  79;

LAMPASAS       PTCLDY    76  71  85 CALM      30.01S
6HR MIN TEMP:  76; 6HR MAX TEMP:  78;

$$

TXZ095>097-106>112-122>126-135>138-148>153-164>167-231300-
EAST TEXAS

CITY           SKY/WX    TMP DP  RH WIND       PRES   REMARKS
PARIS          CLOUDY    72  71  97 NE7       30.07F
6HR MIN TEMP:  72; 6HR MAX TEMP:  77;

SULPHUR SPRNGS CLOUDY    76  72  87 NE13G18   30.06R
6HR MIN TEMP:  76; 6HR MAX TEMP:  78;

MOUNT PLEASANT MOCLDY    74  73  93 NW13      30.05R
6HR MIN TEMP:  74; 6HR MAX TEMP:  77;

GILMER         PTCLDY    74  73  96 CALM      30.02R
6HR MIN TEMP:  73; 6HR MAX TEMP:  76;

MINEOLA        PTCLDY    75  72  88 N6        30.02F
TYLER          PTCLDY    76  74  93 CALM      30.01S
6HR MIN TEMP:  75; 6HR MAX TEMP:  77;

LONGVIEW       MOCLDY    75  74  96 CALM      30.00R
6HR MIN TEMP:  74; 6HR MAX TEMP:  77;

MARSHALL         N/A     73  71  94 CALM      30.03R
6HR MIN TEMP:  71; 6HR MAX TEMP:  73;

ATHENS         PTCLDY    72  72 100 CALM      30.00S
PALESTINE      CLOUDY    74  71  91 CALM      30.02R
JACKSONVILLE   PTCLDY    74  73  93 CALM      30.04R
HENDERSON      PTCLDY    71  70  98 CALM      30.03R
6HR MIN TEMP:  71; 6HR MAX TEMP:  76;

CENTER         SUNNY     77  75  95 CALM      30.02S
6HR MIN TEMP:  77; 6HR MAX TEMP:  79;

NACOGDOCHES    CLEAR     72  71  97 CALM      30.01S
6HR MIN TEMP:  72; 6HR MAX TEMP:  76;

LUFKIN         CLEAR     73  72  96 CALM      30.00S
6HR MIN TEMP:  72; 6HR MAX TEMP:  77;

$$

SUPPLEMENTAL OBSERVATIONS (NWS FORT WORTH AREA)

CITY           SKY/WX    TMP DP  RH WIND       PRES   REMARKS
DENISON DAM      N/A     72  70  94 E6          N/A


USA.gov is the U.S. government's official web portal to all federal, state and local government web resources and services.